Location: *
(58.7167°N, 26.1833°E)
Time: 07:00:06
(UTC+00:00)

Cosmos 1378 - Pass Details

Date: 25 August 2019
Orbit: 494 x 502 km, 82.5° (Epoch: 16 September)

Event Time Altitude Azimuth Distance (km) Brightness Sun altitude
Rises 20:08:10 0° 344° (NNW) 2,603 8.3 -15.9°
Reaches altitude 10° 20:10:19 10° 340° (NNW) 1,716 7.1 -16.0°
Maximum altitude 20:14:00 55° 262° (W) 612 3.6 -16.3°
Enters shadow 20:15:54 25° 195° (SSW) 1,032 4.3 -16.4°
